Temperature
17 17 17 17 17 17 17 17 17 17 17 17 17 17 17 17 17 17 17 17 17 17 17 17 17 18 18 18 18 18 18 18 18 18 18 18 18 18 18 18 18 18 18
17 17 17 17 17 17 17 17 17 17 17 17 17 17 17 17 17 17 17 17 17 17 17 17 18 18 18 18 18 18 18 18 18 18 18 18 18 18 18 18 18 18 18
17 17 17 17 17 17 17 17 17 17 17 17 17 17 17 17 17 17 17 17 17 17 17 17 17 17 18 18 18 17 17 17 18 18 18 18 18 18 18 18 18 18 18
17 17 17 17 17 17 17 16 16 16 16 16 17 17 17 17 17 17 17 17 17 17 17 17 17 17 17 17 17 17 17 17 17 17 18 18 18 18 18 18 18 18 18
17 17 17 17 17 17 16 16 16 16 16 16 17 17 17 17 17 17 17 17 17 17 17 17 17 17 17 17 17 17 17 17 17 17 17 17 17 17 18 18 18 18 18
17 17 17 17 17 17 17 16 16 16 16 16 16 17 17 16 16 17 17 17 17 17 17 17 17 17 17 17 17 17 17 17 17 17 17 17 17 17 17 17 18 18 18
17 17 17 17 17 17 17 16 16 16 16 16 16 16 16 16 16 16 16 17 17 17 17 17 17 17 17 17 17 17 17 17 17 17 17 17 17 17 17 17 17 17 17
17 17 17 17 17 17 17 17 16 16 16 16 16 16 16 16 16 16 16 16 16 16 17 17 17 17 17 17 17 17 17 17 17 17 17 17 17 17 17 17 17 17 17
17 17 17 17 17 17 16 16 16 16 16 16 16 16 16 16 16 16 16 16 16 16 16 16 16 16 16 16 16 16 16 16 17 17 17 17 17 17 17 17 17 17 17
17 17 17 17 17 17 16 16 16 16 16 16 16 16 16 16 16 16 16 16 16 16 16 16 16 16 16 16 16 16 16 16 16 16 16 16 17 17 17 17 17 17 17
17 17 17 17 17 17 16 16 16 16 16 16 16 16 16 16 16 16 16 16 16 16 16 16 16 16 16 16 16 16 16 16 16 16 16 16 16 17 17 17 17 17 17
18 17 17 17 17 17 17 16 16 16 16 16 16 16 16 16 16 16 16 16 16 16 16 16 16 16 16 16 16 16 16 16 16 16 16 16 16 16 16 17 16 16 16
18 17 17 17 17 17 17 17 16 16 16 16 16 16 16 16 16 16 16 16 16 16 16 16 15 15 16 16 16 16 16 16 16 16 15 16 16 16 16 16 16 16 16
18 18 17 17 17 17 17 17 16 16 16 16 16 16 16 16 16 16 16 16 16 15 16 16 15 15 15 15 16 16 15 15 16 15 15 15 15 15 16 16 16 16 16
18 18 18 17 17 17 17 17 17 17 16 16 16 16 16 16 16 16 16 16 16 15 15 15 15 15 15 15 15 15 15 15 15 15 15 15 15 15 15 15 15 15 15
18 18 17 17 17 17 17 17 17 16 16 16 16 16 16 16 16 16 16 16 16 16 16 15 15 15 15 15 15 15 15 15 15 15 15 15 15 15 15 15 15 15 15
18 18 18 17 17 17 17 17 16 16 16 16 16 16 16 16 16 16 16 16 16 16 15 15 15 15 15 15 15 15 15 15 15 15 15 15 15 15 15 15 15 15 15
18 18 18 17 17 17 17 17 16 16 16 16 16 16 16 16 16 16 16 16 16 15 15 15 15 15 15 15 15 15 15 14 15 15 15 15 14 14 14 14 14 14 14
18 18 17 17 17 17 17 16 16 16 16 16 16 16 16 16 16 16 16 16 16 15 15 15 15 15 15 15 15 14 14 14 14 14 14 14 14 14 14 14 14 14 14
18 18 17 17 17 17 17 16 16 16 16 16 16 16 16 16 16 16 16 16 15 15 15 15 15 15 15 15 14 14 14 14 14 14 14 14 14 14 14 14 14 14 14
18 18 17 17 17 17 17 16 16 16 16 16 16 16 16 16 16 16 16 16 15 15 15 15 15 15 15 15 14 14 14 14 14 14 14 14 14 14 14 14 14 14 14
18 18 17 17 17 17 17 16 16 16 16 16 16 16 16 16 16 16 16 16 15 15 15 15 15 15 15 14 14 14 14 14 13 13 13 13 14 14 14 14 14 14 14
18 18 17 17 17 17 16 16 16 16 16 16 16 16 16 15 16 16 15 15 15 15 15 15 15 15 15 14 14 14 14 14 13 13 13 13 13 13 13 13 13 13 13
18 18 17 17 17 17 16 16 16 16 16 16 16 15 15 15 15 15 15 15 15 15 15 15 15 15 15 15 14 14 14 14 14 13 13 13 13 13 13 13 13 13 13
18 17 17 17 17 16 16 16 16 16 16 16 15 15 15 15 15 15 15 15 15 15 15 15 15 15 15 15 15 15 14 14 14 14 13 13 13 13 13 13 13 13 13
17 17 17 17 17 16 16 16 16 16 16 16 15 15 15 15 15 15 15 15 15 15 15 15 15 15 15 15 15 15 15 14 14 14 14 13 13 13 13 13 13 13 13
Wind_Speed
0 1 6 7 7 8 8 8 9 10 10 10 10 11 11 11 11 12 12 12 12 12 12 11 11 11 11 11 11 10 10 10 10 9 10 9 9 9 9 10 9 8 9
4 3 6 7 8 8 8 8 9 9 10 10 10 11 11 11 11 12 12 12 12 12 12 11 11 11 10 10 10 10 10 9 9 9 10 9 9 9 10 9 9 8 9
5 5 6 7 8 9 9 9 10 10 10 10 10 11 11 11 11 12 12 12 12 12 12 11 11 10 10 10 10 10 10 10 10 10 10 8 8 9 10 10 10 9 9
7 6 7 8 9 9 10 10 10 10 11 11 11 11 11 11 11 11 12 12 12 12 11 10 10 10 10 10 10 10 11 11 10 10 8 7 7 10 11 10 10 9 9
6 7 8 9 9 9 10 10 9 10 10 10 10 10 10 10 10 11 11 12 11 11 11 10 10 10 10 10 10 10 10 11 10 10 8 8 8 10 11 10 9 9 8
6 7 8 9 10 10 9 9 9 9 10 10 9 9 10 10 10 11 11 11 11 11 10 10 10 10 10 10 11 11 10 11 10 9 8 8 8 10 11 10 9 9 8
6 7 8 10 10 10 9 9 9 9 9 9 9 9 9 9 10 10 11 10 10 10 10 10 10 10 10 10 11 11 11 11 10 9 8 8 9 11 10 10 9 9 9
7 7 8 10 10 9 9 9 8 8 8 8 8 8 8 9 9 9 10 10 9 9 10 10 10 11 11 11 12 12 12 11 10 8 8 8 10 10 10 10 9 9 9
7 7 7 8 9 9 9 8 7 7 7 7 7 7 8 8 8 8 9 9 9 9 10 10 10 10 11 11 12 12 12 11 9 7 8 8 10 11 10 10 9 9 8
5 5 6 7 8 7 7 7 7 6 6 7 6 6 6 7 7 7 7 8 9 9 9 9 9 10 10 11 11 11 12 11 9 8 7 8 10 10 10 9 8 7 7
5 5 5 6 6 7 6 5 5 5 4 4 5 5 5 5 6 6 6 7 8 8 8 9 9 9 10 10 11 11 10 9 9 7 7 8 9 9 8 8 7 7 7
5 5 5 5 6 6 6 5 4 2 2 2 3 3 4 4 5 5 6 6 6 7 7 7 8 9 9 8 9 10 9 9 8 7 7 8 9 9 8 8 7 7 7
4 5 5 5 6 6 4 5 3 2 2 2 3 4 6 6 5 5 4 5 6 6 6 7 7 7 7 7 7 8 8 8 7 7 7 8 9 8 8 8 8 8 8
4 4 5 5 4 4 5 4 3 2 2 3 3 6 7 5 4 3 3 4 5 5 6 7 6 7 8 8 8 7 7 7 7 7 7 8 8 8 8 9 9 9 9
5 5 5 5 5 4 4 3 4 3 3 3 4 6 8 5 3 3 3 4 5 5 6 6 6 6 6 7 7 7 6 6 7 7 7 8 8 8 8 9 9 9 9
5 6 5 5 5 5 4 3 3 4 4 5 5 6 8 7 5 4 3 4 5 6 7 7 6 6 5 5 6 6 6 6 7 7 7 7 8 8 8 9 9 8 9
6 5 6 6 5 5 4 4 4 4 5 5 5 6 7 7 7 5 4 4 4 7 8 7 7 6 5 5 5 5 5 6 6 6 6 6 6 8 8 9 9 9 9
6 5 5 6 6 5 4 4 4 5 5 4 5 6 7 8 8 7 4 4 6 7 6 5 4 4 4 4 4 3 4 5 5 6 6 6 6 7 8 10 10 10 10
6 6 5 6 6 5 5 5 5 5 5 5 6 6 6 8 9 7 4 5 7 6 4 4 4 4 4 4 3 4 3 3 4 5 6 6 6 7 8 9 11 11 12
5 6 6 6 5 5 4 4 3 4 3 4 4 5 6 7 8 7 5 5 6 5 3 3 4 3 3 3 4 5 4 3 4 5 5 6 7 7 8 9 9 10 11
5 6 6 5 4 4 3 3 2 1 1 2 3 4 5 6 7 6 4 4 5 4 4 4 3 4 3 3 4 4 4 4 4 4 4 5 6 7 9 9 9 9 9
5 5 5 5 4 4 3 2 2 2 1 0 1 3 4 4 5 6 5 4 4 4 4 3 3 3 1 2 3 3 2 4 4 4 3 3 4 6 7 7 8 9 9
5 5 5 4 4 3 3 3 3 3 2 2 2 2 2 3 4 5 5 5 4 4 4 3 4 4 2 1 1 3 3 1 1 3 4 3 3 4 4 6 7 7 7
5 5 5 5 4 3 4 4 4 3 2 2 1 0 1 3 4 5 5 5 4 3 3 3 3 3 3 1 0 1 2 4 3 1 3 4 4 3 2 3 4 5 6
5 5 5 5 4 3 3 4 4 2 2 1 0 1 1 1 2 4 5 5 4 3 3 3 3 3 3 3 2 1 2 2 3 3 1 2 3 3 2 2 3 4 4
4 4 4 5 3 3 3 4 4 4 3 3 1 1 0 0 1 1 4 4 4 3 3 3 3 3 3 3 2 2 2 2 2 3 2 1 0 2 2 2 2 3 3
Wind_Direction
153 104 89 82 81 82 79 79 77 76 75 76 79 81 84 85 87 87 89 88 86 87 89 90 88 89 86 83 80 80 79 85 90 90 88 88 88 93 97 98 95 93 98
159 130 101 91 88 89 86 83 80 81 78 77 80 83 85 89 90 86 86 86 84 85 85 84 87 88 85 82 80 78 78 82 88 90 90 88 89 95 97 98 96 95 95
138 125 112 103 98 93 90 86 83 84 82 80 80 83 86 88 90 89 87 87 85 83 81 82 83 83 84 82 80 79 80 78 81 85 83 80 87 95 97 96 94 93 92
136 130 118 109 103 98 94 89 86 85 83 82 81 83 87 88 88 89 89 89 88 85 81 80 80 80 81 81 80 80 80 77 78 79 75 72 82 93 93 92 90 90 92
130 128 121 114 107 103 101 97 94 91 87 85 85 84 87 91 92 91 91 90 89 88 85 83 82 79 79 80 80 82 83 81 79 76 72 73 84 93 93 94 92 89 89
134 132 127 122 114 109 107 103 98 96 93 90 88 87 89 93 94 94 95 94 93 91 88 85 82 78 78 80 80 81 84 84 83 80 75 77 85 93 93 92 90 88 88
145 142 136 129 122 117 114 110 104 98 96 94 90 88 89 92 94 93 96 98 97 93 89 86 82 79 76 78 78 81 85 84 86 84 80 79 88 92 90 88 86 86 85
152 149 142 138 132 127 121 116 110 104 101 97 93 90 91 94 97 96 97 98 97 94 91 87 83 81 78 78 80 81 82 85 86 85 80 81 90 92 89 84 83 80 79
147 147 151 150 144 140 133 127 121 113 110 106 100 94 92 99 101 101 99 100 98 96 94 90 86 82 76 76 79 80 78 76 76 79 81 80 85 87 86 82 79 74 73
147 152 160 168 162 154 149 144 136 128 120 117 111 102 94 94 96 102 100 102 101 99 96 93 85 81 76 75 78 79 75 72 70 69 74 82 84 85 84 80 77 73 71
159 167 170 177 179 174 168 161 151 143 133 125 123 119 102 92 90 95 98 100 100 96 92 92 85 80 73 70 72 75 71 68 68 67 73 83 84 83 81 79 77 73 70
168 183 179 180 183 180 172 161 171 168 164 157 157 152 132 124 117 105 97 91 92 92 87 88 83 72 65 62 63 70 68 66 66 66 72 79 80 79 78 78 76 75 73
160 160 166 172 170 166 159 154 157 152 148 143 149 151 138 128 117 100 87 65 65 72 73 77 77 72 72 74 73 74 71 65 60 62 69 77 79 80 79 76 73 70 69
122 119 131 142 138 146 141 134 124 117 106 101 118 129 130 122 114 106 92 83 77 77 78 76 85 82 78 80 85 84 78 73 64 62 66 75 78 81 79 76 72 69 68
114 107 121 122 117 118 115 114 109 107 101 97 97 122 133 126 126 115 96 92 89 92 90 86 86 84 82 81 86 89 84 79 73 67 62 69 76 76 74 74 70 68 69
120 123 127 119 108 102 104 108 108 105 98 87 85 107 125 130 127 116 101 94 96 99 97 98 96 89 83 86 81 79 84 82 78 75 64 58 67 73 72 72 70 70 71
132 129 127 123 108 101 97 95 98 101 97 83 77 96 115 123 122 114 110 105 106 106 99 94 88 87 84 79 70 68 74 76 76 75 70 63 57 63 67 68 70 72 74
132 127 126 121 110 104 98 87 82 84 84 78 76 86 109 120 120 113 111 112 113 105 99 95 88 84 72 66 61 55 62 68 69 71 72 69 63 63 63 66 68 71 74
142 136 127 121 119 114 103 89 83 80 76 73 77 84 106 116 116 113 113 117 115 103 98 102 85 92 85 73 67 56 45 53 62 71 64 63 69 71 67 65 66 65 68
140 136 134 129 128 116 98 81 64 56 51 57 65 80 106 117 113 111 114 116 116 109 97 98 99 85 97 93 81 59 38 41 53 56 58 61 65 71 72 69 65 62 62
129 132 140 136 136 121 106 100 90 70 23 26 48 81 103 116 118 114 116 115 120 120 127 123 110 92 76 88 78 47 27 35 41 42 56 62 61 69 75 73 69 63 57
135 133 137 142 144 141 137 140 141 136 116 46 39 61 90 109 122 130 129 132 132 121 117 120 120 110 91 96 111 93 36 13 11 23 31 59 61 70 71 74 76 71 66
137 145 145 145 140 140 130 107 87 63 37 30 30 22 49 105 116 131 139 139 145 141 146 151 144 138 139 50 116 135 133 180 340 355 15 33 45 61 65 75 80 80 77
157 152 143 137 127 132 131 127 130 134 156 215 209 109 42 92 108 124 135 140 147 146 150 164 151 145 138 147 7 67 145 150 141 43 353 6 29 50 64 81 81 84 83
151 147 144 137 133 132 138 143 139 147 181 196 92 95 49 39 80 115 130 135 141 147 159 156 138 134 139 151 165 135 88 80 103 131 135 348 8 6 27 73 89 89 89
125 129 141 142 147 154 140 145 153 166 168 161 169 157 171 357 8 101 126 132 140 140 153 156 146 136 140 138 140 134 139 135 147 135 146 159 25 335 3 32 78 93 102
Height
1541 1540 1539 1538 1537 1536 1535 1534 1534 1533 1532 1531 1530 1530 1530 1529 1529 1528 1528 1528 1528 1529 1529 1529 1529 1530 1530 1530 1530 1530 1530 1530 1530 1530 1530 1530 1531 1531 1531 1532 1532 1532 1533
1541 1540 1539 1538 1537 1536 1536 1535 1534 1534 1533 1532 1531 1531 1530 1530 1530 1530 1529 1529 1529 1530 1530 1530 1530 1530 1531 1531 1531 1531 1532 1532 1532 1532 1531 1532 1532 1532 1533 1533 1533 1533 1533
1541 1540 1540 1539 1538 1537 1536 1536 1535 1535 1534 1533 1533 1532 1532 1531 1531 1531 1530 1530 1531 1531 1531 1531 1531 1531 1532 1532 1532 1532 1533 1533 1533 1533 1533 1533 1533 1533 1533 1534 1534 1534 1534
1542 1541 1540 1539 1539 1538 1537 1536 1536 1535 1535 1534 1534 1533 1533 1532 1532 1532 1532 1532 1532 1532 1532 1532 1532 1533 1533 1533 1533 1534 1534 1534 1534 1534 1534 1534 1534 1534 1534 1534 1534 1534 1535
1543 1542 1541 1540 1540 1539 1538 1537 1537 1537 1536 1536 1535 1534 1534 1534 1533 1533 1533 1533 1533 1533 1533 1534 1534 1534 1534 1534 1534 1535 1535 1535 1535 1535 1535 1535 1535 1535 1535 1535 1535 1535 1535
1543 1543 1542 1542 1541 1540 1539 1539 1538 1538 1537 1537 1536 1536 1535 1535 1535 1535 1534 1534 1534 1534 1535 1535 1535 1535 1535 1535 1535 1535 1536 1536 1536 1536 1536 1535 1535 1536 1536 1536 1536 1536 1536
1544 1544 1543 1543 1542 1541 1541 1540 1540 1539 1539 1538 1538 1537 1537 1536 1536 1536 1536 1536 1536 1536 1536 1536 1536 1536 1536 1536 1536 1536 1537 1537 1537 1537 1537 1536 1536 1536 1536 1536 1536 1536 1536
1545 1545 1545 1544 1543 1543 1542 1542 1541 1541 1540 1539 1539 1538 1538 1538 1538 1537 1537 1537 1537 1537 1537 1538 1538 1538 1537 1537 1537 1538 1538 1538 1538 1538 1538 1538 1537 1537 1537 1537 1537 1537 1537
1546 1546 1546 1546 1545 1544 1544 1543 1543 1542 1542 1541 1541 1540 1540 1539 1539 1539 1539 1539 1539 1539 1539 1539 1539 1539 1539 1539 1539 1539 1539 1539 1539 1539 1539 1539 1539 1538 1538 1538 1538 1537 1537
1548 1548 1547 1547 1547 1546 1546 1545 1545 1544 1544 1543 1543 1542 1542 1541 1541 1541 1541 1540 1540 1540 1540 1541 1541 1541 1541 1541 1541 1541 1541 1541 1540 1540 1540 1540 1539 1539 1539 1538 1538 1538 1537
1549 1549 1548 1548 1548 1548 1547 1547 1547 1546 1545 1545 1544 1544 1543 1543 1543 1542 1542 1542 1542 1542 1542 1542 1542 1542 1542 1542 1542 1542 1542 1542 1541 1541 1541 1541 1540 1540 1539 1539 1539 1538 1538
1549 1549 1549 1549 1549 1549 1549 1548 1548 1547 1547 1547 1546 1546 1545 1545 1544 1544 1544 1544 1543 1543 1543 1543 1543 1543 1543 1543 1543 1543 1543 1543 1542 1542 1542 1542 1541 1541 1540 1540 1539 1538 1538
1549 1550 1550 1550 1550 1550 1550 1549 1549 1549 1548 1548 1548 1547 1547 1547 1546 1546 1546 1545 1545 1545 1545 1545 1545 1545 1545 1545 1545 1544 1544 1544 1543 1543 1543 1542 1542 1541 1541 1540 1539 1539 1538
1550 1550 1551 1551 1551 1551 1551 1550 1550 1550 1550 1549 1549 1549 1549 1548 1548 1548 1548 1547 1547 1547 1547 1547 1546 1546 1546 1546 1546 1545 1545 1545 1544 1544 1544 1543 1543 1542 1542 1541 1540 1539 1539
1551 1551 1551 1552 1552 1551 1551 1551 1551 1551 1551 1551 1550 1550 1550 1550 1550 1550 1549 1549 1549 1549 1549 1548 1548 1548 1548 1547 1547 1547 1546 1546 1545 1545 1544 1544 1543 1543 1542 1542 1541 1540 1539
1551 1552 1552 1553 1553 1553 1552 1552 1552 1553 1552 1552 1552 1552 1551 1551 1551 1551 1551 1550 1550 1550 1550 1550 1550 1549 1549 1549 1548 1548 1547 1547 1546 1546 1545 1545 1544 1544 1543 1542 1542 1541 1540
1552 1553 1553 1553 1553 1553 1553 1553 1553 1553 1553 1553 1553 1553 1553 1553 1552 1552 1552 1552 1552 1551 1551 1551 1551 1551 1550 1550 1550 1549 1549 1548 1548 1547 1547 1546 1545 1545 1544 1543 1543 1542 1541
1553 1553 1554 1554 1554 1554 1554 1554 1554 1554 1554 1554 1554 1554 1554 1554 1553 1553 1553 1553 1553 1553 1553 1552 1552 1552 1552 1551 1551 1550 1550 1549 1549 1549 1548 1547 1547 1546 1545 1544 1543 1543 1542
1553 1553 1554 1554 1554 1554 1555 1555 1555 1555 1555 1555 1555 1555 1555 1554 1554 1554 1554 1553 1553 1553 1553 1553 1553 1553 1553 1552 1552 1552 1551 1551 1550 1550 1549 1549 1548 1547 1546 1545 1545 1544 1544
1553 1554 1554 1554 1555 1555 1555 1555 1555 1555 1555 1555 1555 1555 1555 1555 1555 1554 1554 1554 1554 1554 1554 1554 1554 1554 1554 1554 1553 1553 1553 1552 1552 1551 1551 1550 1549 1548 1548 1547 1546 1546 1545
1553 1554 1554 1554 1555 1555 1555 1555 1555 1555 1555 1555 1555 1556 1555 1555 1555 1555 1555 1555 1555 1555 1555 1555 1555 1555 1555 1555 1554 1554 1554 1554 1554 1553 1552 1551 1551 1550 1550 1549 1548 1548 1547
1553 1553 1554 1554 1555 1555 1555 1555 1555 1555 1555 1556 1556 1556 1556 1555 1555 1555 1555 1555 1555 1555 1555 1555 1555 1555 1555 1555 1555 1555 1555 1557 1555 1555 1554 1553 1552 1552 1551 1550 1550 1549 1549
1552 1553 1553 1554 1555 1555 1555 1555 1555 1555 1555 1555 1555 1555 1555 1555 1555 1555 1555 1555 1555 1555 1555 1556 1556 1556 1556 1556 1556 1556 1556 1556 1556 1557 1556 1555 1554 1553 1553 1552 1551 1551 1550
1552 1552 1553 1554 1554 1555 1555 1555 1555 1555 1555 1555 1555 1555 1555 1555 1555 1555 1555 1556 1555 1556 1556 1556 1556 1556 1556 1556 1556 1556 1556 1556 1556 1557 1557 1556 1555 1555 1554 1553 1553 1552 1552
1552 1552 1553 1553 1554 1554 1555 1555 1555 1555 1554 1555 1555 1555 1555 1555 1555 1555 1555 1555 1555 1556 1556 1556 1556 1556 1556 1556 1556 1556 1556 1555 1556 1556 1556 1557 1556 1556 1555 1555 1554 1554 1553
1551 1552 1552 1553 1553 1554 1554 1554 1554 1554 1554 1554 1554 1554 1554 1555 1555 1555 1555 1555 1555 1555 1555 1556 1556 1556 1556 1556 1556 1556 1556 1555 1555 1556 1556 1556 1556 1557 1556 1556 1555 1555 1554